Flag for Philippines Weather past 2 weeks in Makati, Philippines

Now
73 °F

Passing clouds.


Feels Like: 76 °F
Forecast: 77 / 83 °F
Wind: 12 mph from North

Location: National Airport

Current Time: Dec 22, 2014 at 2:18:50 AM

Latest Report: Dec 22, 2014 at 2:00 AM


Visibility: N/A

Pressure: 29.95 "Hg

Humidity: 65%

Dew point: 61 °F

Location of MakatiLocation

Historic Weather in Makati — Graph

°F

Makati temperature yesterday

Maximum temperature yesterday: 86 °F (at 1:00 PM)
Minimum temperature yesterday: 75 °F (at 5:00 AM)
Average temperature yesterday: 80 °F

Past Weeks' High & Low Weather Summary

 TemperatureHumidityPressure
High90 °F (Dec 11, 11:00 AM)100% (Dec 8, 4:00 PM)30.04 "Hg (Dec 8, 4:00 PM)
Low73 °F (Dec 8, 8:00 PM)37% (Dec 14, 5:00 PM)29.65 "Hg (Dec 8, 2:00 PM)
Average80 °F81%29.88 "Hg
* Reported Dec 7 1:00 AM — Dec 22 1:00 AM, Makati, Weather by CustomWeather, © 2014

Note: Actual official high and low records may vary slightly from our data, if they occured in-between our weather recording intervals... More about our weather records

Advertising

Makati weather history for previous 24 hours

 ConditionsComfort  
Time TempWeatherWind HumidityBarometerVisibility
1:00 AM
Dec 22
77 °FPassing clouds.3 mph100%29.89 "HgN/A
12:00 AM79 °FPassing clouds.No wind94%29.89 "HgN/A
11:00 PM
Dec 21
79 °FPassing clouds.1 mph89%29.92 "HgN/A
10:00 PM79 °FPassing clouds.2 mph89%29.92 "HgN/A
9:00 PM79 °FPassing clouds.No wind89%29.89 "HgN/A
8:00 PM81 °FPassing clouds.1 mph79%29.89 "HgN/A
7:00 PM81 °FPartly cloudy.6 mph79%29.86 "HgN/A
6:00 PM84 °FSprinkles. Partly cloudy.6 mph74%29.86 "HgN/A
5:00 PM82 °FRain. Broken clouds.7 mph74%29.83 "HgN/A
4:00 PM84 °FBroken clouds.5 mph70%29.80 "HgN/A
3:00 PM84 °FBroken clouds.6 mph70%29.80 "HgN/A
2:00 PM84 °FScattered clouds.9 mph74%29.80 "HgN/A
1:00 PM86 °FScattered clouds.7 mph70%29.83 "HgN/A
12:00 PM84 °FPassing clouds.8 mph74%29.86 "HgN/A
11:00 AM84 °FPassing clouds.3 mph74%29.89 "HgN/A
10:00 AM84 °FPassing clouds.2 mph70%29.89 "HgN/A
9:00 AM82 °FPassing clouds.3 mph79%29.89 "HgN/A
8:00 AM81 °FPassing clouds.2 mph84%29.89 "HgN/A
7:00 AM77 °FPassing clouds.2 mph100%29.86 "HgN/A
6:00 AM75 °FPassing clouds.No wind100%29.86 "HgN/A
5:00 AM75 °FPassing clouds.No wind100%29.86 "HgN/A
4:00 AM77 °FPartly cloudy.No wind100%29.86 "HgN/A
3:00 AM77 °FPartly cloudy.2 mph100%29.86 "HgN/A
2:00 AM77 °FPartly cloudy.2 mph100%29.89 "HgN/A
Weather by CustomWeather, © 2014

See weather overviewHow to use our weather pages